Location: Tel Aviv
(32.0670°N, 34.7670°E)
Time: 21:49:11
(UTC+02:00)

Courier 1B Rocket - All Passes

Search period start: 25 January 2022 00:00
Search period end: 04 February 2022 00:00
Orbit: 920 x 1202 km, 28.2° (Epoch: 24 January)

Date Brightness Start Highest point End Pass type
(mag) Time Alt. Az. Time Alt. Az. Time Alt. Az.
25 Jan - 01:39:22 10° WSW 01:46:34 58° S 01:53:16 10° E night (unlit)
25 Jan - 03:33:02 10° W 03:39:59 63° S 03:46:26 10° ESE visible
25 Jan - 05:26:59 10° W 05:33:07 39° SSW 05:38:57 10° SE visible
25 Jan - 07:22:32 10° WSW 07:25:49 14° SSW 07:29:04 10° S daylight
25 Jan - 22:46:05 10° SSW 22:52:11 26° SSE 22:58:03 10° ESE night (unlit)
26 Jan - 00:38:11 10° WSW 00:45:26 51° SSE 00:52:14 10° E night (unlit)
26 Jan - 02:31:42 10° W 02:38:53 65° S 02:45:33 10° E visible
26 Jan - 04:25:34 10° W 04:32:11 49° SSW 04:38:23 10° ESE visible
26 Jan - 06:20:13 10° WSW 06:25:02 22° SSW 06:29:42 10° SSE daylight
26 Jan - 21:46:00 10° SSW 21:51:07 19° SSE 21:56:08 10° ESE night (unlit)
26 Jan - 23:37:08 10° SW 23:44:17 43° SSE 23:51:05 10° E night (unlit)
27 Jan - 01:30:21 10° WSW 01:37:44 64° S 01:44:36 10° E night (unlit)
27 Jan - 03:24:10 10° W 03:31:10 57° S 03:37:40 10° ESE visible
27 Jan - 05:18:26 10° W 05:24:13 30° SSW 05:29:42 10° SE visible
27 Jan - 20:46:50 10° S 20:50:04 13° SSE 20:53:16 10° ESE visible
27 Jan - 22:36:17 10° SW 22:43:09 35° SSE 22:49:47 10° E night (unlit)
28 Jan - 00:29:03 10° WSW 00:36:32 60° S 00:43:35 10° E night (unlit)
28 Jan - 02:22:47 10° W 02:30:04 64° S 02:36:49 10° ESE visible
28 Jan - 04:16:50 10° W 04:23:18 40° SSW 04:29:21 10° SE visible
28 Jan - 06:12:32 10° WSW 06:16:01 15° SSW 06:19:26 10° S visible
28 Jan - 21:35:44 10° SSW 21:42:02 27° SSE 21:48:12 10° E night (unlit)
28 Jan - 23:27:50 10° WSW 23:35:21 53° SSE 23:42:28 10° E night (unlit)
29 Jan - 01:21:23 10° W 01:28:54 66° S 01:35:54 10° E night (unlit)
29 Jan - 03:15:21 10° W 03:22:18 50° SSW 03:28:47 10° ESE visible
29 Jan - 05:10:06 10° WSW 05:15:13 22° SSW 05:20:06 10° SSE visible
29 Jan - 20:35:40 10° SSW 20:40:57 20° SSE 20:46:12 10° ESE visible
29 Jan - 22:26:48 10° SW 22:34:08 44° SSE 22:41:14 10° E night (unlit)
30 Jan - 00:20:02 10° WSW 00:27:40 65° S 00:34:52 10° E night (unlit)
30 Jan - 02:13:54 10° W 02:21:13 58° S 02:28:01 10° ESE visible
30 Jan - 04:08:14 10° W 04:14:21 31° SSW 04:20:06 10° SE visible
30 Jan - 19:36:30 10° S 19:39:55 13° SSE 19:43:19 10° ESE visible
30 Jan - 21:26:00 10° SW 21:32:58 36° SSE 21:39:50 10° E visible
30 Jan - 23:18:44 10° WSW 23:26:24 61° S 23:33:46 10° E night (unlit)
31 Jan - 01:12:28 10° W 01:20:02 64° S 01:27:08 10° ESE night (unlit)
31 Jan - 03:06:35 10° W 03:13:22 41° SSW 03:19:44 10° SE visible
31 Jan - 05:02:19 10° WSW 05:06:10 15° SSW 05:09:53 10° S visible
31 Jan - 20:25:30 10° SSW 20:31:50 27° SSE 20:38:11 10° E visible
31 Jan - 22:17:34 10° WSW 22:25:09 54° SSE 22:32:33 10° E night (unlit)
01 Feb - 00:11:04 10° W 00:18:47 67° S 00:26:07 10° E night (unlit)
01 Feb - 02:05:03 10° W 02:12:18 50° SSW 02:19:06 10° ESE visible
01 Feb - 03:59:52 10° WSW 04:05:18 23° SSW 04:10:29 10° SSE visible
01 Feb - 19:25:30 10° SSW 19:30:46 20° SSE 19:36:06 10° ESE visible
01 Feb - 21:16:35 10° SW 21:23:55 45° SSE 21:31:14 10° E visible
01 Feb - 23:09:44 10° WSW 23:17:30 66° S 23:25:00 10° E night (unlit)
02 Feb - 01:03:35 10° W 01:11:09 59° S 01:18:17 10° ESE night (unlit)
02 Feb - 02:57:57 10° W 03:04:22 32° SSW 03:10:26 10° SE visible
02 Feb - 18:26:26 10° S 18:29:46 13° SSE 18:33:07 10° ESE visible
02 Feb - 20:15:50 10° SW 20:22:45 36° SSE 20:29:44 10° E visible
02 Feb - 22:08:30 10° WSW 22:16:12 62° S 22:23:48 10° E night (unlit)
03 Feb - 00:02:10 10° W 00:09:54 65° S 00:17:18 10° ESE night (unlit)
03 Feb - 01:56:16 10° W 02:03:20 41° SSW 02:10:01 10° SE night (unlit)
03 Feb - 03:52:00 10° WSW 03:56:13 16° SSW 04:00:16 10° S visible
03 Feb - 19:15:26 10° SSW 19:21:38 28° SSE 19:28:00 10° E visible
03 Feb - 21:07:24 10° WSW 21:14:55 54° SSE 21:22:30 10° E visible
03 Feb - 23:00:49 10° W 23:08:36 68° S 23:16:12 10° E night (unlit)
